sat.trackr.live / text

‹ back to catalog

BEIDOU-2 G6 (C02)

NORAD 38953 · 2012-059A

PAYLOAD ACTIVE UNKNOWN

§ Identity

Operator
Country
PRC
Launch date
2012-10-25
Launch site
XICLF
Launch vehicle
Mass (kg)
RCS (m²)
2.51

Purposes: comms, nav

External: N2YO · Heavens-Above · Gunter

§ Orbital elements

Epoch: 2026-09-13T02:16:41.375712Z

Period
1,436.12 min
Inclination
4.6390°
Eccentricity
0.0006900
Mean motion
1.00270161 rev/d
Perigee alt
35,758.0 km
Apogee alt
35,816.1 km
Semi-major
42,165.2 km
B*
0.0000e+0
RAAN
72.5234°
Arg perigee
323.7201°
Mean anomaly
74.0445°
Rev number
5,079

§ Raw data

BEIDOU-2 G6 (C02)1 38953U 12059A   26256.09492333 -.00000185  00000+0  00000+0 0  99922 38953   4.6390  72.5234 0006900 323.7201  74.0445  1.00270161 50791

JSON: /api/v1/satellites/38953 · /tle

For live sub-satellite position, see the globe view (requires WebGL).

§ Visibility from observer

Set your observer location to see the next 7 days of passes ≥ 10°. The values pass through the URL so the page stays shareable.

No JS? Fill the form by hand. The geolocation button needs JavaScript.